[Iaude] MPEC V05: 2016 UU80 [a=2.46,e=0.57,i=7.9,H=20.5]

mpec at si.edu mpec at si.edu
Tue Nov 1 20:25:46 EDT 2016


M.P.E.C. 2016-V05                                Issued 2016 Nov. 2, 00:21 UT
 
     The Minor Planet Electronic Circulars contain information on unusual
         minor planets and routine data on comets.  They are published
    on behalf of Division F of the International Astronomical Union by the
          Minor Planet Center, Smithsonian Astrophysical Observatory,
                          Cambridge, MA 02138, U.S.A.

             Prepared using the Tamkin Foundation Computer Network

                              MPC at CFA.HARVARD.EDU
            URL http://www.minorplanetcenter.net/    ISSN 1523-6714


                                   2016 UU80
 
Observations:
     K16U80U* C2016 10 29.38112 03 31 15.08 -05 43 50.8          20.6 VqEV005G96
     K16U80U  C2016 10 29.38695 03 31 15.07 -05 43 57.9          20.8 VqEV005G96
     K16U80U  C2016 10 29.39250 03 31 15.04 -05 44 05.1          20.5 VqEV005G96
     K16U80U  C2016 10 29.39681 03 31 15.08 -05 44 10.7          20.5 VqEV005G96
     K16U80U HC2016 10 29.42055 03 31 15.16 -05 44 41.2          21.3 VoEV005691
     K16U80U HC2016 10 29.42518 03 31 15.11 -05 44 47.1          20.9 VoEV005691
     K16U80U  C2016 10 29.42546 03 31 15.10 -05 44 47.5          20.9 VqEV005G96
     K16U80U HC2016 10 29.42980 03 31 15.14 -05 44 52.9          20.9 VoEV005691
     K16U80U  C2016 10 29.43034 03 31 15.14 -05 44 54.2          20.5 VqEV005G96
     K16U80U  C2016 10 29.43628 03 31 15.14 -05 45 01.6          20.6 VqEV005G96
     K16U80U  C2016 10 29.44184 03 31 15.15 -05 45 08.4          21.0 VqEV005G96
     K16U80U  C2016 10 30.23358 03 31 22.37 -06 02 18.1          20.4 VqEV005I52
     K16U80U  C2016 10 30.23710 03 31 22.30 -06 02 24.2          20.2 VqEV005I52
     K16U80U  C2016 10 30.24196 03 31 22.35 -06 02 30.7          20.6 VqEV005I52
     K16U80U  C2016 10 30.30499 03 31 22.39 -06 03 52.5          20.6 VqEV005G96
     K16U80U  C2016 10 30.30975 03 31 22.42 -06 03 59.6          20.2 VqEV005G96
     K16U80U  C2016 10 30.31596 03 31 22.44 -06 04 06.6          20.8 VqEV005G96
     K16U80U  C2016 10 30.32163 03 31 22.40 -06 04 14.2          20.6 VqEV005G96
     K16U80U KC2016 10 31.63264 03 31 29.28 -06 32 36.5          19.7 RtEV005474
     K16U80U KC2016 10 31.63476 03 31 29.27 -06 32 39.2          20.0 RtEV005474
     K16U80U KC2016 10 31.63686 03 31 29.26 -06 32 42.2          20.4 RtEV005474
     K16U80U KC2016 10 31.63898 03 31 29.27 -06 32 45.0          19.9 RtEV005474
     K16U80U IC2016 11 01.05468 03 31 31.39 -06 42 23.3                qEV005I93
     K16U80U KC2016 11 01.07057 03 31 31.32 -06 42 44.2          20.8 VqEV005I93
 
Observer details:
474 Mount John Observatory, Lake Tekapo.  Observers A. C. Gilmore,
    P. M. Kilmartin.  Measurer P. M. Kilmartin.  1.0-m f/7.7 reflector + CCD.
691 Steward Observatory, Kitt Peak.  Observer M. T. Read.  0.9-m f/3 reflector
    + CCD.
G96 Mt. Lemmon Survey.  Observer D. C. Fuls.  Measurers E. J. Christensen,
    D. C. Fuls, A. R. Gibbs, A. D. Grauer, J. A. Johnson, R. A. Kowalski,
    S. M. Larson, G. J. Leonard, R. G. Matheny, R. L. Seaman, F. C. Shelly.
    1.5-m reflector + 10K CCD.
I52 Steward Observatory, Mt. Lemmon Station.  Observer J. A. Johnson.
    Measurers E. J. Christensen, D. C. Fuls, A. R. Gibbs, A. D. Grauer,
    J. A. Johnson, R. A. Kowalski, S. M. Larson, G. J. Leonard, R. G. Matheny,
    R. L. Seaman, F. C. Shelly.  1.0-m reflector + CCD.
I93 St Pardon de Conques.  Observer F. Losse.  0.40-m f/3.7 reflector + CCD.
 
Orbital elements:
2016 UU80                                                Earth MOID = 0.0971 AU
Epoch 2016 July 31.0 TT = JDT 2457600.5                 MPC
M 316.38897              (2000.0)            P               Q
n   0.25542609     Peri.  329.85795     -0.39555596     -0.91472118
a   2.4601365      Node   143.26336     +0.86782863     -0.40168209
e   0.5675417      Incl.    7.93640     +0.30068081     -0.04400747
P   3.86           H   20.5           G   0.15           U   8
Residuals in seconds of arc
161029 G96  0.5+  0.5-    161029 G96  0.0   0.3-    161030 G96  0.5+  0.5+
161029 G96  0.3+  0.0     161029 G96  0.2-  0.0     161030 G96  0.1-  0.3+
161029 G96  0.3-  0.1-    161029 G96  0.2-  0.4+    161031 474  0.2+  0.0
161029 G96  0.1+  0.1-    161030 I52  0.4+  0.9+    161031 474  0.1+  0.1+
161029 691  0.5+  0.0     161030 I52  0.7-  0.6-    161031 474  0.0   0.2-
161029 691  0.4-  0.0     161030 I52  0.1-  0.7-    161031 474  0.1+  0.2-
161029 G96  0.4-  0.1+    161030 G96  0.2-  0.2+    161101 I93  0.1+  0.0
161029 691  0.1-  0.2+    161030 G96  0.2+  0.6-    161101 I93  0.5-  0.2+

Ephemeris:
2016 UU80                a,e,i = 2.46, 0.57, 8                   q = 1.0639
Date    TT    R. A. (2000) Decl.     Delta      r     Elong.  Phase     V
2016 10 03    03 18 34.3 +01 53 57   0.7303  1.6268   139.5    23.5    22.0
...
2016 10 18    03 27 56.8 -01 56 38   0.5710  1.5142   148.9    19.9    21.2
...
2016 10 26    03 30 38.4 -04 32 07   0.4998  1.4552   152.3    18.5    20.8
...
2016 11 01    03 31 31.3 -06 40 54   0.4528  1.4117   153.3    18.4    20.5
2016 11 02    03 31 34.6 -07 03 08   0.4455  1.4046   153.3    18.5    20.4
2016 11 03    03 31 36.5 -07 25 33   0.4383  1.3975   153.3    18.6    20.4
...
2016 11 09    03 31 19.8 -09 42 21   0.3982  1.3554   152.1    20.0    20.2
...
2016 11 17    03 30 00.4 -12 44 33   0.3521  1.3014   148.3    23.5    19.9
...
2016 12 02    03 27 09.7 -17 40 03   0.2837  1.2095   137.2    33.6    19.6

A. U. Tomatic                (C) Copyright 2016 MPC           M.P.E.C. 2016-V05




More information about the Iaude mailing list